Location: Long Island Community Building
(39.9491°N, 99.5338°W)
Time: 16:45:33
(UTC+00:00)

Cosmos 1933 Rocket - Pass Details

Date: 06 December 2019
Orbit: 608 x 629 km, 82.5° (Epoch: 20 January)

Event Time Altitude Azimuth Distance (km) Brightness Sun altitude
Rises 12:11:45 0° 200° (SSW) 2,853 6.9 -17.4°
Reaches altitude 10° 12:14:01 10° 207° (SSW) 1,953 6.0 -17.0°
Maximum altitude 12:18:11 46° 281° (W) 816 3.7 -16.2°
Drops below altitude 10° 12:22:23 10° 355° (N) 1,968 5.9 -15.4°
Sets 12:24:41 0° 2° (N) 2,878 6.8 -15.0°
